Time,TemperatureF,DewpointF,PressureIn,WindDirection,WindDirectionDegrees,WindSpeedMPH,WindSpeedGustMPH,Humidity,HourlyPrecipIn,Conditions,Clouds,dailyrainin,SoftwareType,DateUTC
2013-01-23 00:00:00,17.0,7.6,30.27,SE,129,1.0,4.0,66,0.00,CLR,,0.00,WeatherDisplay:10.37,2013-01-23 06:00:00,
2013-01-23 00:10:00,16.8,7.4,30.27,SE,129,0.0,2.0,66,0.00,CLR,,0.00,WeatherDisplay:10.37,2013-01-23 06:10:00,
2013-01-23 00:15:00,16.6,7.2,30.27,SE,129,1.0,2.0,66,0.00,CLR,,0.00,WeatherDisplay:10.37,2013-01-23 06:15:00,
2013-01-23 00:20:00,16.3,7.3,30.27,SE,129,1.0,2.0,67,0.00,CLR,,0.00,WeatherDisplay:10.37,2013-01-23 06:20:00,
2013-01-23 00:25:00,16.4,7.3,30.27,ESE,123,1.0,4.0,67,0.00,CLR,,0.00,WeatherDisplay:10.37,2013-01-23 06:25:00,
2013-01-23 00:30:00,16.8,7.7,30.27,ESE,103,1.0,3.0,67,0.00,CLR,,0.00,WeatherDisplay:10.37,2013-01-23 06:30:00,
2013-01-23 00:40:00,17.1,7.4,30.27,East,95,1.0,3.0,65,0.00,CLR,,0.00,WeatherDisplay:10.37,2013-01-23 06:40:00,
2013-01-23 00:45:00,17.0,7.3,30.27,East,95,1.0,2.0,65,0.00,CLR,,0.00,WeatherDisplay:10.37,2013-01-23 06:45:00,
2013-01-23 00:50:00,16.7,7.3,30.26,East,97,2.0,3.0,66,0.00,CLR,,0.00,WeatherDisplay:10.37,2013-01-23 06:50:00,
2013-01-23 00:55:00,16.4,7.0,30.26,East,99,0.0,2.0,66,0.00,CLR,,0.00,WeatherDisplay:10.37,2013-01-23 06:55:00,
2013-01-23 01:00:00,16.1,7.1,30.26,East,101,0.0,2.0,67,0.00,CLR,,0.00,WeatherDisplay:10.37,2013-01-23 07:00:00,
2013-01-23 01:10:00,15.7,7.0,30.26,East,101,0.0,2.0,68,0.00,CLR,,0.00,WeatherDisplay:10.37,2013-01-23 07:10:00,
2013-01-23 01:15:00,15.6,7.2,30.26,East,101,0.0,1.0,69,0.00,CLR,,0.00,WeatherDisplay:10.37,2013-01-23 07:15:00,
2013-01-23 01:20:00,15.6,7.2,30.26,East,101,0.0,1.0,69,0.00,CLR,,0.00,WeatherDisplay:10.37,2013-01-23 07:20:00,
2013-01-23 01:25:00,15.6,7.2,30.25,East,101,0.0,2.0,69,0.00,CLR,,0.00,WeatherDisplay:10.37,2013-01-23 07:25:00,
2013-01-23 01:30:00,15.6,7.2,30.26,East,101,0.0,2.0,69,0.00,CLR,,0.00,WeatherDisplay:10.37,2013-01-23 07:30:00,
2013-01-23 01:40:00,15.5,7.5,30.25,East,101,1.0,2.0,70,0.00,CLR,,0.00,WeatherDisplay:10.37,2013-01-23 07:40:00,
2013-01-23 01:45:00,15.7,7.3,30.25,ESE,102,1.0,3.0,69,0.00,CLR,,0.00,WeatherDisplay:10.37,2013-01-23 07:45:00,
2013-01-23 01:50:00,15.8,7.4,30.25,ESE,102,1.0,2.0,69,0.00,CLR,,0.00,WeatherDisplay:10.37,2013-01-23 07:50:00,
2013-01-23 01:55:00,15.8,7.4,30.26,ESE,102,1.0,2.0,69,0.00,CLR,,0.00,WeatherDisplay:10.37,2013-01-23 07:55:00,
2013-01-23 02:00:00,15.7,7.6,30.25,ESE,102,0.0,2.0,70,0.00,CLR,,0.00,WeatherDisplay:10.37,2013-01-23 08:00:00,
2013-01-23 02:10:00,15.7,7.6,30.25,ESE,103,1.0,3.0,70,0.00,CLR,,0.00,WeatherDisplay:10.37,2013-01-23 08:10:00,
2013-01-23 02:15:00,15.7,7.6,30.25,ESE,104,2.0,3.0,70,0.00,CLR,,0.00,WeatherDisplay:10.37,2013-01-23 08:15:00,
2013-01-23 02:20:00,15.7,7.6,30.24,ESE,110,2.0,3.0,70,0.00,CLR,,0.00,WeatherDisplay:10.37,2013-01-23 08:20:00,
2013-01-23 02:25:00,15.7,7.6,30.24,ESE,122,2.0,4.0,70,0.00,CLR,,0.00,WeatherDisplay:10.37,2013-01-23 08:25:00,
2013-01-23 02:30:00,15.8,7.4,30.24,SE,131,2.0,4.0,69,0.00,CLR,,0.00,WeatherDisplay:10.37,2013-01-23 08:30:00,
2013-01-23 02:40:00,15.8,7.4,30.25,SE,131,0.0,1.0,69,0.00,CLR,,0.00,WeatherDisplay:10.37,2013-01-23 08:40:00,
2013-01-23 02:45:00,15.7,7.3,30.25,SE,128,0.0,1.0,69,0.00,CLR,,0.00,WeatherDisplay:10.37,2013-01-23 08:45:00,
2013-01-23 02:50:00,15.7,7.6,30.25,SE,128,1.0,2.0,70,0.00,CLR,,0.00,WeatherDisplay:10.37,2013-01-23 08:50:00,
2013-01-23 02:55:00,15.7,7.6,30.25,SE,128,1.0,3.0,70,0.00,CLR,,0.00,WeatherDisplay:10.37,2013-01-23 08:55:00,
2013-01-23 03:00:00,15.9,7.5,30.25,SE,128,2.0,3.0,69,0.00,CLR,,0.00,WeatherDisplay:10.37,2013-01-23 09:00:00,
2013-01-23 03:10:00,16.3,7.6,30.24,SSE,153,3.0,5.0,68,0.00,CLR,,0.00,WeatherDisplay:10.37,2013-01-23 09:10:00,
2013-01-23 03:15:00,16.6,7.5,30.24,SSE,157,2.0,5.0,67,0.00,CLR,,0.00,WeatherDisplay:10.37,2013-01-23 09:15:00,
2013-01-23 03:20:00,16.6,7.5,30.24,SSE,159,1.0,3.0,67,0.00,CLR,,0.00,WeatherDisplay:10.37,2013-01-23 09:20:00,
2013-01-23 03:25:00,16.3,7.3,30.24,SSE,159,0.0,2.0,67,0.00,CLR,,0.00,WeatherDisplay:10.37,2013-01-23 09:25:00,
2013-01-23 03:30:00,16.2,7.2,30.24,SSE,159,1.0,1.0,67,0.00,CLR,,0.00,WeatherDisplay:10.37,2013-01-23 09:30:00,
2013-01-23 03:40:00,16.1,7.4,30.24,SSE,159,1.0,2.0,68,0.00,CLR,,0.00,WeatherDisplay:10.37,2013-01-23 09:40:00,
2013-01-23 03:45:00,16.1,7.4,30.24,SSE,159,1.0,2.0,68,0.00,CLR,,0.00,WeatherDisplay:10.37,2013-01-23 09:45:00,
2013-01-23 03:50:00,16.0,7.3,30.24,SSE,159,1.0,2.0,68,0.00,CLR,,0.00,WeatherDisplay:10.37,2013-01-23 09:50:00,
2013-01-23 03:55:00,16.0,7.3,30.24,SSE,159,0.0,2.0,68,0.00,CLR,,0.00,WeatherDisplay:10.37,2013-01-23 09:55:00,
2013-01-23 04:00:00,15.8,7.1,30.23,SSE,159,1.0,1.0,68,0.00,CLR,,0.00,WeatherDisplay:10.37,2013-01-23 10:00:00,
2013-01-23 04:10:00,15.8,7.4,30.23,SSE,159,1.0,2.0,69,0.00,CLR,,0.00,WeatherDisplay:10.37,2013-01-23 10:10:00,
2013-01-23 04:15:00,15.8,7.5,30.23,SSE,159,1.0,2.0,69,0.00,CLR,,0.00,WeatherDisplay:10.37,2013-01-23 10:15:00,
2013-01-23 04:20:00,16.0,7.3,30.22,SSE,159,2.0,2.0,68,0.00,CLR,,0.00,WeatherDisplay:10.37,2013-01-23 10:20:00,
2013-01-23 04:25:00,16.1,7.4,30.22,SSE,159,2.0,3.0,68,0.00,CLR,,0.00,WeatherDisplay:10.37,2013-01-23 10:25:00,
2013-01-23 04:30:00,16.3,7.5,30.22,SSE,159,3.0,4.0,68,0.00,CLR,,0.00,WeatherDisplay:10.37,2013-01-23 10:30:00,
2013-01-23 04:40:00,16.6,7.5,30.22,SSE,167,3.0,5.0,67,0.00,CLR,,0.00,WeatherDisplay:10.37,2013-01-23 10:40:00,
2013-01-23 04:45:00,16.7,7.3,30.22,SSE,168,2.0,4.0,66,0.00,CLR,,0.00,WeatherDisplay:10.37,2013-01-23 10:45:00,
2013-01-23 04:50:00,16.7,7.3,30.22,SSE,168,2.0,4.0,66,0.00,CLR,,0.00,WeatherDisplay:10.37,2013-01-23 10:50:00,
2013-01-23 04:55:00,16.6,7.6,30.22,SSE,168,2.0,4.0,67,0.00,CLR,,0.00,WeatherDisplay:10.37,2013-01-23 10:55:00,
2013-01-23 05:00:00,16.5,7.4,30.22,SSE,168,2.0,4.0,67,0.00,CLR,,0.00,WeatherDisplay:10.37,2013-01-23 11:00:00,
2013-01-23 05:10:00,16.3,7.3,30.22,SSE,168,1.0,3.0,67,0.00,CLR,,0.00,WeatherDisplay:10.37,2013-01-23 11:10:00,
2013-01-23 05:15:00,15.9,7.2,30.22,SSE,168,2.0,3.0,68,0.00,CLR,,0.00,WeatherDisplay:10.37,2013-01-23 11:15:00,
2013-01-23 05:20:00,15.9,7.2,30.22,SSE,168,2.0,3.0,68,0.00,CLR,,0.00,WeatherDisplay:10.37,2013-01-23 11:20:00,
2013-01-23 05:30:00,15.9,7.2,30.22,SSE,168,3.0,4.0,68,0.00,CLR,,0.00,WeatherDisplay:10.37,2013-01-23 11:30:00,
2013-01-23 05:40:00,16.5,7.4,30.22,SSE,168,3.0,5.0,67,0.00,CLR,,0.00,WeatherDisplay:10.37,2013-01-23 11:40:00,
2013-01-23 05:45:00,16.5,7.4,30.22,SSE,168,3.0,5.0,67,0.00,CLR,,0.00,WeatherDisplay:10.37,2013-01-23 11:45:00,
2013-01-23 05:50:00,16.2,7.2,30.21,SSE,168,2.0,4.0,67,0.00,CLR,,0.00,WeatherDisplay:10.37,2013-01-23 11:50:00,
2013-01-23 05:55:00,15.8,7.4,30.21,SSE,168,2.0,4.0,69,0.00,CLR,,0.00,WeatherDisplay:10.37,2013-01-23 11:55:00,
2013-01-23 06:00:00,15.8,7.4,30.22,SSE,168,2.0,5.0,69,0.00,CLR,,0.00,WeatherDisplay:10.37,2013-01-23 12:00:00,
2013-01-23 06:10:00,16.2,7.8,30.21,SSE,168,3.0,5.0,69,0.00,CLR,,0.00,WeatherDisplay:10.37,2013-01-23 12:10:00,
2013-01-23 06:15:00,16.3,7.6,30.21,SSE,168,2.0,5.0,68,0.00,CLR,,0.00,WeatherDisplay:10.37,2013-01-23 12:15:00,
2013-01-23 06:20:00,16.1,7.7,30.21,SSE,168,3.0,5.0,69,0.00,CLR,,0.00,WeatherDisplay:10.37,2013-01-23 12:20:00,
2013-01-23 06:25:00,16.0,7.6,30.21,SSE,168,2.0,4.0,69,0.00,CLR,,0.00,WeatherDisplay:10.37,2013-01-23 12:25:00,
2013-01-23 06:30:00,15.7,7.4,30.21,SSE,168,3.0,5.0,69,0.00,CLR,,0.00,WeatherDisplay:10.37,2013-01-23 12:30:00,
2013-01-23 06:40:00,15.5,7.5,30.21,South,170,3.0,5.0,70,0.00,CLR,,0.00,WeatherDisplay:10.37,2013-01-23 12:40:00,
2013-01-23 06:45:00,15.4,7.7,30.21,South,171,3.0,5.0,71,0.00,CLR,,0.00,WeatherDisplay:10.37,2013-01-23 12:45:00,
2013-01-23 06:50:00,15.6,7.8,30.20,South,171,3.0,4.0,71,0.00,CLR,,0.00,WeatherDisplay:10.37,2013-01-23 12:50:00,
2013-01-23 06:55:00,15.7,7.9,30.21,South,171,2.0,5.0,71,0.00,CLR,,0.00,WeatherDisplay:10.37,2013-01-23 12:55:00,
2013-01-23 07:00:00,15.6,7.9,30.21,South,171,2.0,4.0,71,0.00,CLR,,0.00,WeatherDisplay:10.37,2013-01-23 13:00:00,
2013-01-23 07:10:00,15.6,7.9,30.21,South,171,5.0,5.0,71,0.00,CLR,,0.00,WeatherDisplay:10.37,2013-01-23 13:10:00,
2013-01-23 07:15:00,15.7,8.0,30.21,South,179,5.0,6.0,71,0.00,CLR,,0.00,WeatherDisplay:10.37,2013-01-23 13:15:00,
2013-01-23 07:20:00,15.8,7.7,30.21,SSW,192,5.0,6.0,70,0.00,CLR,,0.00,WeatherDisplay:10.37,2013-01-23 13:20:00,
2013-01-23 07:25:00,15.8,8.1,30.21,SSW,196,3.0,5.0,71,0.00,CLR,,0.00,WeatherDisplay:10.37,2013-01-23 13:25:00,
2013-01-23 07:30:00,15.7,8.0,30.21,SSW,195,3.0,4.0,71,0.00,CLR,,0.00,WeatherDisplay:10.37,2013-01-23 13:30:00,
2013-01-23 07:35:00,15.7,8.3,30.21,SSW,195,3.0,4.0,72,0.00,CLR,,0.00,WeatherDisplay:10.37,2013-01-23 13:35:00,
2013-01-23 07:40:00,15.8,8.4,30.21,SSW,195,2.0,4.0,72,0.00,CLR,,0.00,WeatherDisplay:10.37,2013-01-23 13:40:00,
2013-01-23 07:45:00,15.9,8.5,30.21,SSW,194,3.0,5.0,72,0.00,CLR,,0.00,WeatherDisplay:10.37,2013-01-23 13:45:00,
2013-01-23 07:50:00,16.1,8.3,30.22,SSW,194,6.0,7.0,71,0.00,CLR,,0.00,WeatherDisplay:10.37,2013-01-23 13:50:00,
2013-01-23 07:55:00,16.3,8.5,30.22,SSW,195,6.0,7.0,71,0.00,CLR,,0.00,WeatherDisplay:10.37,2013-01-23 13:55:00,
2013-01-23 08:00:00,16.3,8.6,30.21,SSW,199,5.0,7.0,71,0.00,CLR,,0.00,WeatherDisplay:10.37,2013-01-23 14:00:00,
2013-01-23 08:05:00,16.5,9.0,30.21,SSW,200,3.0,4.0,72,0.00,CLR,,0.00,WeatherDisplay:10.37,2013-01-23 14:05:00,
2013-01-23 08:10:00,16.7,9.2,30.20,SSW,195,3.0,6.0,72,0.00,CLR,,0.00,WeatherDisplay:10.37,2013-01-23 14:10:00,
2013-01-23 08:15:00,17.2,9.4,30.20,South,189,3.0,5.0,71,0.00,CLR,,0.00,WeatherDisplay:10.37,2013-01-23 14:15:00,
2013-01-23 08:20:00,17.7,9.6,30.20,South,189,5.0,7.0,70,0.00,CLR,,0.00,WeatherDisplay:10.37,2013-01-23 14:20:00,
2013-01-23 08:25:00,18.1,9.9,30.21,South,189,5.0,7.0,70,0.00,CLR,,0.00,WeatherDisplay:10.37,2013-01-23 14:25:00,
2013-01-23 08:30:00,18.6,10.1,30.21,South,189,5.0,6.0,69,0.00,CLR,,0.00,WeatherDisplay:10.37,2013-01-23 14:30:00,
2013-01-23 08:40:00,19.4,10.8,30.21,South,190,5.0,8.0,69,0.00,CLR,,0.00,WeatherDisplay:10.37,2013-01-23 14:40:00,
2013-01-23 08:45:00,20.0,11.5,30.21,South,191,5.0,8.0,69,0.00,CLR,,0.00,WeatherDisplay:10.37,2013-01-23 14:45:00,
2013-01-23 08:50:00,20.8,11.9,30.21,SSW,193,5.0,7.0,68,0.00,CLR,,0.00,WeatherDisplay:10.37,2013-01-23 14:50:00,
2013-01-23 08:55:00,21.5,12.6,30.21,SSW,194,6.0,9.0,68,0.00,CLR,,0.00,WeatherDisplay:10.37,2013-01-23 14:55:00,
2013-01-23 09:00:00,22.4,13.4,30.20,SSW,197,6.0,8.0,68,0.00,CLR,,0.00,WeatherDisplay:10.37,2013-01-23 15:00:00,
2013-01-23 09:10:00,23.5,13.8,30.20,SSW,206,5.0,7.0,66,0.00,CLR,,0.00,WeatherDisplay:10.37,2013-01-23 15:10:00,
2013-01-23 09:15:00,24.0,13.9,30.20,SSW,198,5.0,7.0,65,0.00,CLR,,0.00,WeatherDisplay:10.37,2013-01-23 15:15:00,
2013-01-23 09:20:00,24.4,14.6,30.21,SSW,199,3.0,7.0,66,0.00,CLR,,0.00,WeatherDisplay:10.37,2013-01-23 15:20:00,
2013-01-23 09:25:00,24.7,14.6,30.21,SSW,206,5.0,7.0,65,0.00,CLR,,0.00,WeatherDisplay:10.37,2013-01-23 15:25:00,
2013-01-23 09:30:00,25.3,14.8,30.21,SSW,207,3.0,7.0,64,0.00,CLR,,0.00,WeatherDisplay:10.37,2013-01-23 15:30:00,
2013-01-23 09:40:00,26.0,15.5,30.20,SSW,212,6.0,10.0,64,0.00,CLR,,0.00,WeatherDisplay:10.37,2013-01-23 15:40:00,
2013-01-23 09:45:00,26.2,15.3,30.21,SW,218,5.0,9.0,63,0.00,CLR,,0.00,WeatherDisplay:10.37,2013-01-23 15:45:00,
2013-01-23 09:50:00,26.8,16.2,30.21,SW,217,5.0,7.0,64,0.00,CLR,,0.00,WeatherDisplay:10.37,2013-01-23 15:50:00,
2013-01-23 09:55:00,27.5,16.5,30.21,SW,215,2.0,6.0,63,0.00,CLR,,0.00,WeatherDisplay:10.37,2013-01-23 15:55:00,
2013-01-23 10:00:00,28.3,17.0,30.22,SW,223,3.0,5.0,62,0.00,CLR,,0.00,WeatherDisplay:10.37,2013-01-23 16:00:00,
2013-01-23 10:05:00,28.8,17.0,30.22,SW,229,2.0,5.0,61,0.00,CLR,,0.00,WeatherDisplay:10.37,2013-01-23 16:05:00,
2013-01-23 10:10:00,29.4,17.6,30.22,SW,234,1.0,4.0,61,0.00,CLR,,0.00,WeatherDisplay:10.37,2013-01-23 16:10:00,
2013-01-23 10:15:00,30.0,17.8,30.22,WSW,249,2.0,5.0,60,0.00,CLR,,0.00,WeatherDisplay:10.37,2013-01-23 16:15:00,
2013-01-23 10:20:00,30.5,18.3,30.23,WSW,256,1.0,6.0,60,0.00,CLR,,0.00,WeatherDisplay:10.37,2013-01-23 16:20:00,
2013-01-23 10:25:00,30.8,18.2,30.23,West,273,2.0,5.0,59,0.00,CLR,,0.00,WeatherDisplay:10.37,2013-01-23 16:25:00,
2013-01-23 10:30:00,31.3,18.6,30.23,West,281,2.0,6.0,59,0.00,CLR,,0.00,WeatherDisplay:10.37,2013-01-23 16:30:00,
2013-01-23 10:40:00,32.7,19.1,30.23,West,271,1.0,3.0,57,0.00,CLR,,0.00,WeatherDisplay:10.37,2013-01-23 16:40:00,
2013-01-23 10:45:00,32.9,19.3,30.23,West,281,1.0,4.0,57,0.00,CLR,,0.00,WeatherDisplay:10.37,2013-01-23 16:45:00,
2013-01-23 10:50:00,33.5,19.4,30.23,West,268,2.0,4.0,56,0.00,CLR,,0.00,WeatherDisplay:10.37,2013-01-23 16:50:00,
2013-01-23 10:55:00,34.2,19.7,30.23,SW,224,2.0,5.0,55,0.00,CLR,,0.00,WeatherDisplay:10.37,2013-01-23 16:55:00,
2013-01-23 11:00:00,34.6,19.7,30.23,SW,219,3.0,5.0,54,0.00,CLR,,0.00,WeatherDisplay:10.37,2013-01-23 17:00:00,
2013-01-23 11:10:00,35.4,20.0,30.23,West,271,1.0,6.0,53,0.00,CLR,,0.00,WeatherDisplay:10.37,2013-01-23 17:10:00,
2013-01-23 11:15:00,36.0,20.0,30.23,West,279,2.0,5.0,52,0.00,CLR,,0.00,WeatherDisplay:10.37,2013-01-23 17:15:00,
2013-01-23 11:20:00,36.4,20.0,30.23,West,265,3.0,6.0,51,0.00,CLR,,0.00,WeatherDisplay:10.37,2013-01-23 17:20:00,
2013-01-23 11:25:00,36.9,20.0,30.23,West,267,5.0,7.0,50,0.00,CLR,,0.00,WeatherDisplay:10.37,2013-01-23 17:25:00,
2013-01-23 11:30:00,37.2,19.8,30.22,West,277,5.0,7.0,49,0.00,CLR,,0.00,WeatherDisplay:10.37,2013-01-23 17:30:00,
2013-01-23 11:40:00,37.7,19.8,30.22,West,267,3.0,6.0,48,0.00,CLR,,0.00,WeatherDisplay:10.37,2013-01-23 17:40:00,
2013-01-23 11:45:00,38.4,20.4,30.22,WSW,248,3.0,5.0,48,0.00,CLR,,0.00,WeatherDisplay:10.37,2013-01-23 17:45:00,
2013-01-23 11:50:00,38.8,20.3,30.21,West,266,1.0,5.0,47,0.00,CLR,,0.00,WeatherDisplay:10.37,2013-01-23 17:50:00,
2013-01-23 11:55:00,38.8,19.2,30.21,West,274,3.0,7.0,45,0.00,CLR,,0.00,WeatherDisplay:10.37,2013-01-23 17:55:00,
2013-01-23 12:00:00,38.5,19.5,30.20,WNW,286,3.0,6.0,46,0.00,CLR,,0.00,WeatherDisplay:10.37,2013-01-23 18:00:00,
2013-01-23 12:10:00,39.5,19.9,30.19,West,263,2.0,5.0,45,0.00,CLR,,0.00,WeatherDisplay:10.37,2013-01-23 18:10:00,
2013-01-23 12:15:00,40.0,20.4,30.19,West,265,3.0,5.0,45,0.00,CLR,,0.00,WeatherDisplay:10.37,2013-01-23 18:15:00,
2013-01-23 12:20:00,40.3,20.1,30.19,West,274,2.0,8.0,44,0.00,CLR,,0.00,WeatherDisplay:10.37,2013-01-23 18:20:00,
2013-01-23 12:30:00,40.5,20.3,30.19,WNW,290,6.0,8.0,44,0.00,CLR,,0.00,WeatherDisplay:10.37,2013-01-23 18:30:00,
2013-01-23 12:40:00,41.0,20.2,30.19,WNW,298,7.0,12.0,43,0.00,CLR,,0.00,WeatherDisplay:10.37,2013-01-23 18:40:00,
2013-01-23 12:45:00,41.1,20.3,30.19,NW,307,6.0,9.0,43,0.00,CLR,,0.00,WeatherDisplay:10.37,2013-01-23 18:45:00,
2013-01-23 12:50:00,41.4,20.5,30.19,WNW,303,5.0,8.0,43,0.00,CLR,,0.00,WeatherDisplay:10.37,2013-01-23 18:50:00,
2013-01-23 12:55:00,41.3,20.5,30.18,WNW,292,6.0,8.0,43,0.00,CLR,,0.00,WeatherDisplay:10.37,2013-01-23 18:55:00,
2013-01-23 13:00:00,41.3,20.5,30.18,WNW,292,6.0,8.0,43,0.00,CLR,,0.00,WeatherDisplay:10.37,2013-01-23 19:00:00,
2013-01-23 13:10:00,41.9,20.4,30.18,WNW,292,5.0,9.0,42,0.00,CLR,,0.00,WeatherDisplay:10.37,2013-01-23 19:10:00,
2013-01-23 13:15:00,42.4,21.5,30.18,WNW,298,6.0,9.0,43,0.00,CLR,,0.00,WeatherDisplay:10.37,2013-01-23 19:15:00,
2013-01-23 13:20:00,42.4,21.5,30.18,WNW,295,7.0,9.0,43,0.00,CLR,,0.00,WeatherDisplay:10.37,2013-01-23 19:20:00,
2013-01-23 13:25:00,42.5,21.5,30.18,WNW,298,7.0,13.0,43,0.00,CLR,,0.00,WeatherDisplay:10.37,2013-01-23 19:25:00,
2013-01-23 13:30:00,42.9,21.4,30.18,NW,309,6.0,12.0,42,0.00,CLR,,0.00,WeatherDisplay:10.37,2013-01-23 19:30:00,
2013-01-23 13:40:00,43.2,21.6,30.18,NW,304,7.0,10.0,42,0.00,CLR,,0.00,WeatherDisplay:10.37,2013-01-23 19:40:00,
2013-01-23 13:45:00,43.8,21.6,30.17,NW,310,5.0,8.0,41,0.00,CLR,,0.00,WeatherDisplay:10.37,2013-01-23 19:45:00,
2013-01-23 13:50:00,44.1,21.9,30.17,NNW,331,8.0,12.0,41,0.00,CLR,,0.00,WeatherDisplay:10.37,2013-01-23 19:50:00,
2013-01-23 13:55:00,43.9,21.1,30.17,NW,325,8.0,12.0,40,0.00,CLR,,0.00,WeatherDisplay:10.37,2013-01-23 19:55:00,
2013-01-23 14:00:00,43.6,22.0,30.17,NW,324,6.0,10.0,42,0.00,CLR,,0.00,WeatherDisplay:10.37,2013-01-23 20:00:00,
2013-01-23 14:05:00,43.5,21.3,30.17,NNW,339,7.0,12.0,41,0.00,CLR,,0.00,WeatherDisplay:10.37,2013-01-23 20:05:00,
2013-01-23 14:10:00,43.4,21.2,30.17,NNW,342,6.0,10.0,41,0.00,CLR,,0.00,WeatherDisplay:10.37,2013-01-23 20:10:00,
2013-01-23 14:15:00,43.6,21.4,30.17,NW,325,5.0,9.0,41,0.00,CLR,,0.00,WeatherDisplay:10.37,2013-01-23 20:15:00,
2013-01-23 14:20:00,43.4,21.2,30.17,NNW,327,7.0,12.0,41,0.00,CLR,,0.00,WeatherDisplay:10.37,2013-01-23 20:20:00,
2013-01-23 14:25:00,43.6,20.8,30.17,NNW,332,7.0,12.0,40,0.00,CLR,,0.00,WeatherDisplay:10.37,2013-01-23 20:25:00,
2013-01-23 14:30:00,43.6,20.9,30.17,NNW,334,5.0,12.0,40,0.00,CLR,,0.00,WeatherDisplay:10.37,2013-01-23 20:30:00,
2013-01-23 14:35:00,43.7,20.9,30.17,NNW,337,8.0,10.0,40,0.00,CLR,,0.00,WeatherDisplay:10.37,2013-01-23 20:35:00,
2013-01-23 14:40:00,43.5,20.8,30.17,NNW,329,5.0,10.0,40,0.00,CLR,,0.00,WeatherDisplay:10.37,2013-01-23 20:40:00,
2013-01-23 14:45:00,43.8,21.0,30.17,NW,325,6.0,10.0,40,0.00,CLR,,0.00,WeatherDisplay:10.37,2013-01-23 20:45:00,
2013-01-23 14:50:00,44.1,21.3,30.17,NW,326,8.0,12.0,40,0.00,CLR,,0.00,WeatherDisplay:10.37,2013-01-23 20:50:00,
2013-01-23 14:55:00,44.0,21.2,30.17,NNW,329,8.0,12.0,40,0.00,CLR,,0.00,WeatherDisplay:10.37,2013-01-23 20:55:00,
2013-01-23 15:00:00,43.8,21.0,30.17,NNW,339,7.0,14.0,40,0.00,CLR,,0.00,WeatherDisplay:10.37,2013-01-23 21:00:00,
2013-01-23 15:10:00,43.7,20.4,30.17,NNW,337,9.0,14.0,39,0.00,CLR,,0.00,WeatherDisplay:10.37,2013-01-23 21:10:00,
2013-01-23 15:15:00,44.0,21.2,30.17,NNW,333,7.0,10.0,40,0.00,CLR,,0.00,WeatherDisplay:10.37,2013-01-23 21:15:00,
2013-01-23 15:20:00,44.2,20.8,30.17,NNW,334,10.0,14.0,39,0.00,CLR,,0.00,WeatherDisplay:10.37,2013-01-23 21:20:00,
2013-01-23 15:25:00,44.1,20.6,30.17,NNW,338,7.0,12.0,39,0.00,CLR,,0.00,WeatherDisplay:10.37,2013-01-23 21:25:00,
2013-01-23 15:30:00,44.4,20.9,30.17,NNW,343,8.0,12.0,39,0.00,CLR,,0.00,WeatherDisplay:10.37,2013-01-23 21:30:00,
2013-01-23 15:40:00,44.5,20.4,30.18,NNW,336,12.0,15.0,38,0.00,CLR,,0.00,WeatherDisplay:10.37,2013-01-23 21:40:00,
2013-01-23 15:45:00,44.4,20.3,30.18,NNW,333,12.0,13.0,38,0.00,CLR,,0.00,WeatherDisplay:10.37,2013-01-23 21:45:00,
2013-01-23 15:50:00,44.1,20.7,30.18,NNW,334,12.0,16.0,39,0.00,CLR,,0.00,WeatherDisplay:10.37,2013-01-23 21:50:00,
2013-01-23 15:55:00,43.7,20.3,30.18,NNW,343,9.0,14.0,39,0.00,CLR,,0.00,WeatherDisplay:10.37,2013-01-23 21:55:00,
2013-01-23 16:00:00,43.4,20.0,30.18,NNW,345,9.0,14.0,39,0.00,CLR,,0.00,WeatherDisplay:10.37,2013-01-23 22:00:00,
2013-01-23 16:10:00,42.7,19.4,30.18,NNW,342,10.0,15.0,39,0.00,CLR,,0.00,WeatherDisplay:10.37,2013-01-23 22:10:00,
2013-01-23 16:15:00,42.0,19.4,30.18,NNW,347,12.0,15.0,40,0.00,CLR,,0.00,WeatherDisplay:10.37,2013-01-23 22:15:00,
2013-01-23 16:20:00,41.3,18.8,30.18,NNW,348,9.0,15.0,40,0.00,CLR,,0.00,WeatherDisplay:10.37,2013-01-23 22:20:00,
2013-01-23 16:25:00,40.7,18.8,30.18,NNW,348,8.0,12.0,41,0.00,CLR,,0.00,WeatherDisplay:10.37,2013-01-23 22:25:00,
2013-01-23 16:30:00,40.0,18.7,30.19,NNW,346,9.0,14.0,42,0.00,CLR,,0.00,WeatherDisplay:10.37,2013-01-23 22:30:00,
2013-01-23 16:35:00,39.7,18.5,30.19,NNW,342,9.0,12.0,42,0.00,CLR,,0.00,WeatherDisplay:10.37,2013-01-23 22:35:00,
2013-01-23 16:40:00,39.6,18.9,30.19,NNW,340,8.0,12.0,43,0.00,CLR,,0.00,WeatherDisplay:10.37,2013-01-23 22:40:00,
2013-01-23 16:45:00,39.5,18.8,30.19,NNW,341,7.0,12.0,43,0.00,CLR,,0.00,WeatherDisplay:10.37,2013-01-23 22:45:00,
2013-01-23 16:50:00,39.3,18.7,30.20,NNW,341,9.0,13.0,43,0.00,CLR,,0.00,WeatherDisplay:10.37,2013-01-23 22:50:00,
2013-01-23 16:55:00,38.8,18.7,30.20,NNW,342,7.0,14.0,44,0.00,CLR,,0.00,WeatherDisplay:10.37,2013-01-23 22:55:00,
2013-01-23 17:00:00,38.1,18.6,30.20,NNW,341,8.0,12.0,45,0.00,CLR,,0.00,WeatherDisplay:10.37,2013-01-23 23:00:00,
2013-01-23 17:10:00,37.2,18.8,30.21,NNW,341,6.0,10.0,47,0.00,CLR,,0.00,WeatherDisplay:10.37,2013-01-23 23:10:00,
2013-01-23 17:15:00,36.8,18.4,30.22,NNW,338,5.0,8.0,47,0.00,CLR,,0.00,WeatherDisplay:10.37,2013-01-23 23:15:00,
2013-01-23 17:20:00,36.5,18.7,30.22,NNW,337,7.0,9.0,48,0.00,CLR,,0.00,WeatherDisplay:10.37,2013-01-23 23:20:00,
2013-01-23 17:25:00,36.2,18.4,30.23,NNW,337,6.0,8.0,48,0.00,CLR,,0.00,WeatherDisplay:10.37,2013-01-23 23:25:00,
2013-01-23 17:30:00,36.0,19.1,30.23,NNW,337,8.0,12.0,50,0.00,CLR,,0.00,WeatherDisplay:10.37,2013-01-23 23:30:00,
2013-01-23 17:35:00,35.6,19.2,30.23,NNW,337,7.0,9.0,51,0.00,CLR,,0.00,WeatherDisplay:10.37,2013-01-23 23:35:00,
2013-01-23 17:40:00,35.3,19.0,30.24,NNW,337,8.0,10.0,51,0.00,CLR,,0.00,WeatherDisplay:10.37,2013-01-23 23:40:00,
2013-01-23 17:45:00,35.2,18.9,30.24,NNW,338,9.0,13.0,51,0.00,CLR,,0.00,WeatherDisplay:10.37,2013-01-23 23:45:00,
2013-01-23 17:50:00,35.1,18.7,30.24,NNW,340,9.0,15.0,51,0.00,CLR,,0.00,WeatherDisplay:10.37,2013-01-23 23:50:00,
2013-01-23 18:00:00,34.0,18.2,30.25,NNW,342,12.0,20.0,52,0.00,CLR,,0.00,WeatherDisplay:10.37,2013-01-24 00:00:00,
2013-01-23 18:10:00,33.1,18.3,30.26,NNW,338,12.0,16.0,54,0.00,CLR,,0.00,WeatherDisplay:10.37,2013-01-24 00:10:00,
2013-01-23 18:15:00,32.7,17.9,30.26,NNW,341,10.0,14.0,54,0.00,CLR,,0.00,WeatherDisplay:10.37,2013-01-24 00:15:00,
2013-01-23 18:20:00,32.1,17.8,30.26,NNW,339,10.0,14.0,55,0.00,CLR,,0.00,WeatherDisplay:10.37,2013-01-24 00:20:00,
2013-01-23 18:30:00,31.8,17.9,30.27,NNW,339,10.0,14.0,56,0.00,CLR,,0.00,WeatherDisplay:10.37,2013-01-24 00:30:00,
2013-01-23 18:35:00,31.4,17.9,30.27,NNW,339,8.0,12.0,57,0.00,CLR,,0.00,WeatherDisplay:10.37,2013-01-24 00:35:00,
2013-01-23 18:40:00,31.1,17.6,30.28,NNW,340,8.0,13.0,57,0.00,CLR,,0.00,WeatherDisplay:10.37,2013-01-24 00:40:00,
2013-01-23 18:45:00,30.9,17.9,30.27,NNW,343,7.0,13.0,58,0.00,CLR,,0.00,WeatherDisplay:10.37,2013-01-24 00:45:00,
2013-01-23 18:50:00,30.8,17.7,30.28,NNW,343,8.0,13.0,58,0.00,CLR,,0.00,WeatherDisplay:10.37,2013-01-24 00:50:00,
2013-01-23 19:00:00,30.1,17.4,30.27,NNW,343,6.0,9.0,59,0.00,CLR,,0.00,WeatherDisplay:10.37,2013-01-24 01:00:00,
2013-01-23 19:10:00,29.7,17.5,30.28,NNW,338,7.0,8.0,60,0.00,CLR,,0.00,WeatherDisplay:10.37,2013-01-24 01:10:00,
2013-01-23 19:15:00,29.5,17.7,30.29,NNW,336,7.0,9.0,61,0.00,CLR,,0.00,WeatherDisplay:10.37,2013-01-24 01:15:00,
2013-01-23 19:20:00,29.1,17.3,30.29,NNW,336,6.0,9.0,61,0.00,CLR,,0.00,WeatherDisplay:10.37,2013-01-24 01:20:00,
2013-01-23 19:30:00,28.4,17.4,30.29,NNW,331,7.0,10.0,63,0.00,CLR,,0.00,WeatherDisplay:10.37,2013-01-24 01:30:00,
2013-01-23 19:40:00,28.2,17.6,30.30,NNW,338,7.0,12.0,64,0.00,CLR,,0.00,WeatherDisplay:10.37,2013-01-24 01:40:00,
2013-01-23 19:45:00,28.3,17.3,30.30,NNW,340,8.0,13.0,63,0.00,CLR,,0.00,WeatherDisplay:10.37,2013-01-24 01:45:00,
2013-01-23 19:50:00,28.3,17.3,30.31,NNW,340,9.0,13.0,63,0.00,CLR,,0.00,WeatherDisplay:10.37,2013-01-24 01:50:00,
2013-01-23 20:00:00,28.2,16.8,30.31,NNW,341,10.0,15.0,62,0.00,CLR,,0.00,WeatherDisplay:10.37,2013-01-24 02:00:00,
2013-01-23 20:10:00,27.9,16.6,30.31,NNW,339,9.0,15.0,62,0.00,CLR,,0.00,WeatherDisplay:10.37,2013-01-24 02:10:00,
2013-01-23 20:15:00,27.8,16.4,30.31,NNW,340,9.0,14.0,62,0.00,CLR,,0.00,WeatherDisplay:10.37,2013-01-24 02:15:00,
2013-01-23 20:20:00,27.6,16.2,30.32,NNW,340,10.0,16.0,62,0.00,CLR,,0.00,WeatherDisplay:10.37,2013-01-24 02:20:00,
2013-01-23 20:30:00,27.0,16.1,30.33,NNW,338,8.0,13.0,63,0.00,CLR,,0.00,WeatherDisplay:10.37,2013-01-24 02:30:00,
2013-01-23 20:40:00,26.4,16.2,30.33,NNW,340,10.0,13.0,65,0.00,CLR,,0.00,WeatherDisplay:10.37,2013-01-24 02:40:00,
2013-01-23 20:45:00,26.4,16.2,30.33,NNW,341,9.0,13.0,65,0.00,CLR,,0.00,WeatherDisplay:10.37,2013-01-24 02:45:00,
2013-01-23 20:50:00,26.1,16.0,30.33,NNW,339,9.0,13.0,65,0.00,CLR,,0.00,WeatherDisplay:10.37,2013-01-24 02:50:00,
2013-01-23 20:55:00,26.2,16.0,30.34,NNW,342,9.0,13.0,65,0.00,CLR,,0.00,WeatherDisplay:10.37,2013-01-24 02:55:00,
2013-01-23 21:00:00,26.2,15.7,30.33,NNW,345,8.0,15.0,64,0.00,CLR,,0.00,WeatherDisplay:10.37,2013-01-24 03:00:00,
2013-01-23 21:05:00,26.0,15.5,30.33,North,352,7.0,12.0,64,0.00,CLR,,0.00,WeatherDisplay:10.37,2013-01-24 03:05:00,
2013-01-23 21:10:00,26.0,15.5,30.34,North,350,7.0,10.0,64,0.00,CLR,,0.00,WeatherDisplay:10.37,2013-01-24 03:10:00,
2013-01-23 21:15:00,25.8,15.3,30.35,NNW,342,8.0,12.0,64,0.00,CLR,,0.00,WeatherDisplay:10.37,2013-01-24 03:15:00,
2013-01-23 21:20:00,25.6,15.1,30.35,NNW,342,6.0,10.0,64,0.00,CLR,,0.00,WeatherDisplay:10.37,2013-01-24 03:20:00,
2013-01-23 21:25:00,25.4,15.3,30.35,NNW,343,7.0,10.0,65,0.00,CLR,,0.00,WeatherDisplay:10.37,2013-01-24 03:25:00,
2013-01-23 21:30:00,25.3,15.2,30.36,NNW,343,8.0,12.0,65,0.00,CLR,,0.00,WeatherDisplay:10.37,2013-01-24 03:30:00,
2013-01-23 21:40:00,25.0,14.9,30.36,NNW,346,7.0,9.0,65,0.00,CLR,,0.00,WeatherDisplay:10.37,2013-01-24 03:40:00,
2013-01-23 21:45:00,25.0,14.9,30.36,NNW,346,7.0,12.0,65,0.00,CLR,,0.00,WeatherDisplay:10.37,2013-01-24 03:45:00,
2013-01-23 21:50:00,24.9,14.8,30.36,NNW,345,7.0,12.0,65,0.00,CLR,,0.00,WeatherDisplay:10.37,2013-01-24 03:50:00,
2013-01-23 22:00:00,24.8,14.3,30.37,NNW,344,7.0,12.0,64,0.00,CLR,,0.00,WeatherDisplay:10.37,2013-01-24 04:00:00,
2013-01-23 22:05:00,24.7,14.2,30.37,NNW,347,7.0,12.0,64,0.00,CLR,,0.00,WeatherDisplay:10.37,2013-01-24 04:05:00,
2013-01-23 22:10:00,24.7,14.2,30.36,North,353,8.0,12.0,64,0.00,CLR,,0.00,WeatherDisplay:10.37,2013-01-24 04:10:00,
2013-01-23 22:15:00,24.5,14.1,30.36,North,358,7.0,9.0,64,0.00,CLR,,0.00,WeatherDisplay:10.37,2013-01-24 04:15:00,
2013-01-23 22:20:00,24.3,13.9,30.36,North,355,5.0,8.0,64,0.00,CLR,,0.00,WeatherDisplay:10.37,2013-01-24 04:20:00,
2013-01-23 22:25:00,24.0,13.9,30.37,NNW,348,5.0,7.0,65,0.00,CLR,,0.00,WeatherDisplay:10.37,2013-01-24 04:25:00,
2013-01-23 22:30:00,23.6,13.9,30.37,NNW,341,6.0,8.0,66,0.00,CLR,,0.00,WeatherDisplay:10.37,2013-01-24 04:30:00,
2013-01-23 22:40:00,23.0,13.7,30.36,NNW,345,5.0,6.0,67,0.00,CLR,,0.00,WeatherDisplay:10.37,2013-01-24 04:40:00,
2013-01-23 22:45:00,22.8,13.8,30.36,North,352,5.0,7.0,68,0.00,CLR,,0.00,WeatherDisplay:10.37,2013-01-24 04:45:00,
2013-01-23 22:50:00,22.7,13.7,30.37,North,2,5.0,9.0,68,0.00,CLR,,0.00,WeatherDisplay:10.37,2013-01-24 04:50:00,
2013-01-23 23:00:00,22.8,13.1,30.38,North,3,7.0,10.0,66,0.00,CLR,,0.00,WeatherDisplay:10.37,2013-01-24 05:00:00,
2013-01-23 23:05:00,22.9,12.9,30.38,North,360,7.0,13.0,65,0.00,CLR,,0.00,WeatherDisplay:10.37,2013-01-24 05:05:00,
2013-01-23 23:10:00,22.9,12.9,30.40,North,0,6.0,10.0,65,0.00,CLR,,0.00,WeatherDisplay:10.37,2013-01-24 05:10:00,
2013-01-23 23:15:00,22.6,12.6,30.40,North,357,7.0,10.0,65,0.00,CLR,,0.00,WeatherDisplay:10.37,2013-01-24 05:15:00,
2013-01-23 23:20:00,22.6,12.6,30.40,North,354,7.0,13.0,65,0.00,CLR,,0.00,WeatherDisplay:10.37,2013-01-24 05:20:00,
2013-01-23 23:25:00,22.4,12.4,30.40,North,358,7.0,11.0,65,0.00,CLR,,0.00,WeatherDisplay:10.37,2013-01-24 05:25:00,
2013-01-23 23:30:00,22.3,12.3,30.40,North,6,7.0,12.0,65,0.00,CLR,,0.00,WeatherDisplay:10.37,2013-01-24 05:30:00,
2013-01-23 23:40:00,21.8,12.2,30.40,North,9,7.0,9.0,66,0.00,CLR,,0.00,WeatherDisplay:10.37,2013-01-24 05:40:00,
2013-01-23 23:45:00,21.7,12.1,30.41,North,9,8.0,10.0,66,0.00,CLR,,0.00,WeatherDisplay:10.37,2013-01-24 05:45:00,
2013-01-23 23:50:00,21.6,12.3,30.40,NNE,12,6.0,10.0,67,0.00,CLR,,0.00,WeatherDisplay:10.37,2013-01-24 05:50:00,
2013-01-23 23:55:00,21.5,12.2,30.41,North,10,8.0,12.0,67,0.00,CLR,,0.00,WeatherDisplay:10.37,2013-01-24 05:55:00,